TNO5555 NWWW-YMMB

Flight info

Callsign TNO5555
Flight time 3h 30m
Altitude 38000
Route POXAK3E POXAK B580 NOBAR B450 TESAT H65 LEECE Q29 LUVAS Q205 COLDS
Aircraft A20N/M-SDE2E3FGHIRWXY/LB1

Departure

Time 2026-04-23 23:00
Airport La Tontouta International Airport (NWWW)

Arrival

Time 2026-04-24 02:30
Airport Melbourne Moorabbin Airport (YMMB)
Time Latitude Longitude Altitude Speed Heading
2026-04-23 22:53 -22.01339 166.21598 27 ft 0 kts 121°
2026-04-23 22:54 -22.01338 166.21596 27 ft 3 kts 121°
2026-04-23 22:54 -22.01328 166.21580 27 ft 3 kts 121°
2026-04-23 22:54 -22.01319 166.21563 27 ft 3 kts 121°
2026-04-23 22:55 -22.01309 166.21546 27 ft 3 kts 121°
2026-04-23 22:55 -22.01300 166.21530 27 ft 3 kts 121°
2026-04-23 22:55 -22.01290 166.21519 27 ft 0 kts 177°
2026-04-23 22:55 -22.01305 166.21507 27 ft 6 kts 219°
2026-04-23 22:56 -22.01335 166.21480 27 ft 5 kts 219°
2026-04-23 22:56 -22.01392 166.21439 27 ft 19 kts 213°
2026-04-23 22:56 -22.01456 166.21340 27 ft 15 kts 278°
2026-04-23 22:56 -22.01385 166.21203 28 ft 25 kts 302°
2026-04-23 22:57 -22.01293 166.21045 29 ft 24 kts 299°
2026-04-23 22:57 -22.01216 166.20891 27 ft 23 kts 298°
2026-04-23 22:57 -22.01137 166.20742 24 ft 22 kts 299°
2026-04-23 22:57 -22.01061 166.20600 23 ft 22 kts 300°
2026-04-23 22:58 -22.00984 166.20456 21 ft 22 kts 300°
2026-04-23 22:58 -22.00896 166.20305 20 ft 27 kts 303°
2026-04-23 22:58 -22.00791 166.20132 17 ft 27 kts 303°
2026-04-23 22:58 -22.00683 166.19995 16 ft 16 kts 285°
2026-04-23 22:59 -22.00701 166.19974 17 ft 3 kts 123°
2026-04-23 22:59 -22.00830 166.20201 19 ft 70 kts 122°
2026-04-23 22:59 -22.01206 166.20870 27 ft 139 kts 121°
2026-04-23 22:59 -22.01772 166.21878 348 ft 168 kts 121°
2026-04-23 23:00 -22.02405 166.23015 921 ft 185 kts 121°
2026-04-23 23:00 -22.03086 166.24217 1665 ft 195 kts 121°
2026-04-23 23:00 -22.03904 166.25497 1943 ft 221 kts 133°
2026-04-23 23:00 -22.05284 166.26375 2196 ft 246 kts 169°
2026-04-23 23:01 -22.07011 166.26144 2638 ft 261 kts 206°
2026-04-23 23:01 -22.08333 166.24799 3281 ft 269 kts 242°
2026-04-23 23:01 -22.08913 166.22877 3989 ft 272 kts 257°
2026-04-23 23:01 -22.09283 166.20892 4874 ft 267 kts 258°
2026-04-23 23:02 -22.09669 166.18952 5782 ft 263 kts 257°
2026-04-23 23:02 -22.10092 166.17055 6492 ft 267 kts 257°
2026-04-23 23:02 -22.10589 166.15111 7171 ft 270 kts 255°
2026-04-23 23:02 -22.11217 166.13191 7883 ft 273 kts 251°
2026-04-23 23:03 -22.11995 166.11309 8634 ft 277 kts 246°
2026-04-23 23:03 -22.12927 166.09473 9353 ft 282 kts 242°
2026-04-23 23:03 -22.14015 166.07691 10085 ft 287 kts 238°
2026-04-23 23:03 -22.15267 166.05960 10569 ft 302 kts 233°
2026-04-23 23:04 -22.16737 166.04236 10835 ft 322 kts 229°
2026-04-23 23:04 -22.18371 166.02481 11114 ft 340 kts 228°
2026-04-23 23:04 -22.20062 166.00697 11533 ft 349 kts 228°
2026-04-23 23:04 -22.21821 165.98855 12058 ft 355 kts 228°
2026-04-23 23:05 -22.23598 165.97001 12676 ft 357 kts 227°
2026-04-23 23:05 -22.25393 165.95124 13277 ft 361 kts 228°
2026-04-23 23:05 -22.27199 165.93231 13901 ft 363 kts 228°
2026-04-23 23:05 -22.29020 165.91319 14431 ft 366 kts 228°
2026-04-23 23:06 -22.30852 165.89395 14980 ft 369 kts 228°
2026-04-23 23:06 -22.32694 165.87459 15534 ft 371 kts 229°
2026-04-23 23:06 -22.34547 165.85510 16073 ft 373 kts 229°
2026-04-23 23:06 -22.36412 165.83548 16593 ft 375 kts 229°
2026-04-23 23:07 -22.38284 165.81577 17113 ft 377 kts 229°
2026-04-23 23:07 -22.40140 165.79624 17590 ft 379 kts 229°
2026-04-23 23:07 -22.42037 165.77626 18060 ft 382 kts 230°
2026-04-23 23:07 -22.43941 165.75618 18469 ft 385 kts 230°
2026-04-23 23:08 -22.45867 165.73587 18833 ft 387 kts 230°
2026-04-23 23:08 -22.47799 165.71549 19214 ft 389 kts 230°
2026-04-23 23:08 -22.49744 165.69497 19597 ft 392 kts 230°
2026-04-23 23:08 -22.51696 165.67436 19965 ft 393 kts 230°
2026-04-23 23:09 -22.53661 165.65361 20357 ft 395 kts 231°
2026-04-23 23:09 -22.55606 165.63306 20739 ft 398 kts 231°
2026-04-23 23:09 -22.57591 165.61208 21134 ft 400 kts 231°
2026-04-23 23:09 -22.59584 165.59101 21551 ft 402 kts 231°
2026-04-23 23:10 -22.61587 165.56982 21962 ft 404 kts 231°
2026-04-23 23:10 -22.63601 165.54849 22374 ft 406 kts 231°
2026-04-23 23:10 -22.65625 165.52707 22788 ft 408 kts 232°
2026-04-23 23:10 -22.67658 165.50552 23207 ft 410 kts 232°
2026-04-23 23:11 -22.69706 165.48382 23607 ft 413 kts 232°
2026-04-23 23:11 -22.71735 165.46231 23966 ft 415 kts 232°
2026-04-23 23:11 -22.73803 165.44038 24296 ft 417 kts 232°
2026-04-23 23:11 -22.75881 165.41833 24646 ft 419 kts 232°
2026-04-23 23:12 -22.77967 165.39620 25016 ft 420 kts 233°
2026-04-23 23:12 -22.80058 165.37398 25342 ft 422 kts 233°
2026-04-23 23:12 -22.82161 165.35164 25665 ft 424 kts 233°
2026-04-23 23:12 -22.84272 165.32920 25978 ft 426 kts 233°
2026-04-23 23:13 -22.86393 165.30664 26283 ft 428 kts 233°
2026-04-23 23:13 -22.88498 165.28425 26585 ft 430 kts 233°
2026-04-23 23:13 -22.90638 165.26146 26893 ft 432 kts 233°
2026-04-23 23:13 -22.92788 165.23857 27189 ft 434 kts 233°
2026-04-23 23:14 -22.94943 165.21561 27481 ft 436 kts 233°
2026-04-23 23:14 -22.97115 165.19246 27769 ft 438 kts 234°
2026-04-23 23:14 -22.99288 165.16928 28046 ft 440 kts 234°
2026-04-23 23:14 -23.01473 165.14597 28320 ft 441 kts 234°
2026-04-23 23:15 -23.03636 165.12287 28588 ft 443 kts 234°
2026-04-23 23:15 -23.05837 165.09937 28939 ft 444 kts 234°
2026-04-23 23:15 -23.08036 165.07591 29372 ft 442 kts 234°
2026-04-23 23:15 -23.10222 165.05256 29767 ft 441 kts 235°
2026-04-23 23:16 -23.12405 165.02922 30140 ft 440 kts 235°
2026-04-23 23:16 -23.14581 165.00594 30465 ft 439 kts 235°
2026-04-23 23:16 -23.16755 164.98266 30763 ft 439 kts 236°
2026-04-23 23:16 -23.18927 164.95940 31044 ft 438 kts 236°
2026-04-23 23:17 -23.21068 164.93645 31326 ft 438 kts 236°
2026-04-23 23:17 -23.23233 164.91323 31606 ft 437 kts 236°
2026-04-23 23:17 -23.25398 164.89001 31889 ft 437 kts 236°
2026-04-23 23:17 -23.27559 164.86681 32191 ft 436 kts 236°
2026-04-23 23:18 -23.29719 164.84362 32471 ft 436 kts 236°
2026-04-23 23:18 -23.31874 164.82047 32741 ft 435 kts 236°
2026-04-23 23:18 -23.34026 164.79737 33135 ft 433 kts 237°
2026-04-23 23:18 -23.36156 164.77449 33482 ft 430 kts 237°
2026-04-23 23:19 -23.38283 164.75160 33738 ft 430 kts 237°
2026-04-23 23:19 -23.40377 164.72904 33967 ft 430 kts 237°
2026-04-23 23:19 -23.42502 164.70616 34212 ft 429 kts 237°
2026-04-23 23:19 -23.44623 164.68330 34406 ft 429 kts 237°
2026-04-23 23:20 -23.46743 164.66040 34568 ft 430 kts 238°
2026-04-23 23:20 -23.48865 164.63743 34721 ft 430 kts 238°
2026-04-23 23:20 -23.50990 164.61444 34879 ft 431 kts 238°
2026-04-23 23:20 -23.53117 164.59142 35035 ft 431 kts 238°
2026-04-23 23:21 -23.55245 164.56838 35191 ft 432 kts 238°
2026-04-23 23:21 -23.57347 164.54561 35339 ft 432 kts 238°
2026-04-23 23:21 -23.59477 164.52254 35486 ft 432 kts 238°
2026-04-23 23:21 -23.61608 164.49945 35707 ft 432 kts 239°
2026-04-23 23:22 -23.63734 164.47643 35886 ft 431 kts 239°
2026-04-23 23:22 -23.65857 164.45341 36021 ft 431 kts 239°
2026-04-23 23:22 -23.67988 164.43027 36141 ft 432 kts 239°
2026-04-23 23:22 -23.70116 164.40714 36266 ft 432 kts 239°
2026-04-23 23:23 -23.72245 164.38400 36389 ft 432 kts 239°
2026-04-23 23:23 -23.74376 164.36083 36502 ft 433 kts 239°
2026-04-23 23:23 -23.76511 164.33761 36648 ft 433 kts 239°
2026-04-23 23:23 -23.78616 164.31470 36754 ft 433 kts 239°
2026-04-23 23:24 -23.80748 164.29150 36874 ft 433 kts 239°
2026-04-23 23:24 -23.82886 164.26822 36997 ft 434 kts 239°
2026-04-23 23:24 -23.85023 164.24494 37109 ft 434 kts 239°
2026-04-23 23:24 -23.87157 164.22168 37215 ft 434 kts 240°
2026-04-23 23:25 -23.89290 164.19842 37315 ft 434 kts 240°
2026-04-23 23:25 -23.93568 164.15170 37473 ft 435 kts 240°
2026-04-23 23:26 -23.97834 164.10506 37616 ft 437 kts 240°
2026-04-23 23:26 -24.02141 164.05795 37759 ft 439 kts 240°
2026-04-23 23:27 -24.06464 164.01062 37881 ft 440 kts 240°
2026-04-23 23:27 -24.10802 163.96308 38037 ft 442 kts 240°
2026-04-23 23:28 -24.15150 163.91540 38205 ft 443 kts 240°
2026-04-23 23:28 -24.19485 163.86778 38205 ft 444 kts 240°
2026-04-23 23:29 -24.23843 163.81995 38205 ft 443 kts 240°
2026-04-23 23:29 -24.28191 163.77212 38213 ft 443 kts 240°
2026-04-23 23:30 -24.32533 163.72427 38216 ft 443 kts 240°
2026-04-23 23:30 -24.36876 163.67638 38216 ft 442 kts 240°
2026-04-23 23:31 -24.41183 163.62884 38222 ft 442 kts 240°
2026-04-23 23:31 -24.45519 163.58092 38214 ft 442 kts 240°
2026-04-23 23:32 -24.49848 163.53306 38215 ft 441 kts 240°
2026-04-23 23:32 -24.54170 163.48520 38214 ft 441 kts 240°
2026-04-23 23:33 -24.58461 163.43762 38216 ft 441 kts 240°
2026-04-23 23:33 -24.62778 163.38972 38222 ft 441 kts 240°
2026-04-23 23:34 -24.67093 163.34179 38220 ft 441 kts 240°
2026-04-23 23:34 -24.71405 163.29385 38239 ft 440 kts 241°
2026-04-23 23:35 -24.75702 163.24606 38223 ft 439 kts 241°
2026-04-23 23:35 -24.79959 163.19861 38225 ft 438 kts 241°
2026-04-23 23:36 -24.84240 163.15080 38227 ft 438 kts 241°
2026-04-23 23:36 -24.88521 163.10299 38227 ft 438 kts 241°
2026-04-23 23:37 -24.92800 163.05516 38229 ft 438 kts 241°
2026-04-23 23:37 -24.97049 163.00761 38251 ft 438 kts 241°
2026-04-23 23:38 -25.01315 162.95987 38235 ft 436 kts 241°
2026-04-23 23:38 -25.05570 162.91217 38228 ft 436 kts 241°
2026-04-23 23:39 -25.09816 162.86448 38230 ft 436 kts 241°
2026-04-23 23:39 -25.14064 162.81674 38232 ft 436 kts 241°
2026-04-23 23:40 -25.18284 162.76927 38228 ft 436 kts 241°
2026-04-23 23:40 -25.22530 162.72147 38268 ft 436 kts 241°
2026-04-23 23:41 -25.26770 162.67369 38234 ft 434 kts 241°
2026-04-23 23:41 -25.30967 162.62635 38233 ft 434 kts 241°
2026-04-23 23:42 -25.35189 162.57865 38239 ft 434 kts 241°
2026-04-23 23:42 -25.39415 162.53084 38235 ft 435 kts 241°
2026-04-23 23:43 -25.43644 162.48296 38238 ft 435 kts 241°
2026-04-23 23:43 -25.47871 162.43507 38238 ft 435 kts 241°
2026-04-23 23:44 -25.52067 162.38748 38235 ft 434 kts 240°
2026-04-23 23:44 -25.56282 162.33963 38241 ft 434 kts 241°
2026-04-23 23:45 -25.60493 162.29176 38239 ft 434 kts 241°
2026-04-23 23:45 -25.64701 162.24387 38248 ft 434 kts 240°
2026-04-23 23:46 -25.68884 162.19620 38241 ft 434 kts 240°
2026-04-23 23:46 -25.73097 162.14814 38240 ft 435 kts 240°
2026-04-23 23:47 -25.77311 162.10004 38242 ft 434 kts 240°
2026-04-23 23:47 -25.81516 162.05201 38239 ft 433 kts 240°
2026-04-23 23:48 -25.85710 162.00403 38246 ft 433 kts 240°
2026-04-23 23:48 -25.89876 161.95630 38247 ft 433 kts 240°
2026-04-23 23:49 -25.96164 161.88416 38245 ft 433 kts 240°
2026-04-23 23:49 -26.00354 161.83604 38279 ft 433 kts 239°
2026-04-23 23:50 -26.04536 161.78795 38249 ft 432 kts 239°
2026-04-23 23:50 -26.08687 161.74018 38249 ft 432 kts 239°
2026-04-23 23:51 -26.12863 161.69207 38251 ft 432 kts 239°
2026-04-23 23:51 -26.17033 161.64395 38252 ft 432 kts 239°
2026-04-23 23:52 -26.21202 161.59581 38250 ft 432 kts 240°
2026-04-23 23:52 -26.25373 161.54758 38247 ft 432 kts 239°
2026-04-23 23:53 -26.29516 161.49961 38246 ft 433 kts 239°
2026-04-23 23:53 -26.33694 161.45121 38256 ft 433 kts 239°
2026-04-23 23:54 -26.37864 161.40285 38248 ft 433 kts 239°
2026-04-23 23:54 -26.42037 161.35439 38249 ft 433 kts 239°
2026-04-23 23:55 -26.46177 161.30626 38250 ft 433 kts 239°
2026-04-23 23:55 -26.50343 161.25778 38249 ft 432 kts 239°
2026-04-23 23:56 -26.54505 161.20929 38255 ft 433 kts 239°
2026-04-23 23:56 -26.58665 161.16075 38260 ft 433 kts 239°
2026-04-23 23:57 -26.62802 161.11245 38257 ft 433 kts 239°
2026-04-23 23:57 -26.66969 161.06375 38257 ft 433 kts 239°
2026-04-23 23:58 -26.71130 161.01505 38259 ft 433 kts 239°
2026-04-23 23:58 -26.75286 160.96635 38294 ft 433 kts 238°
2026-04-23 23:59 -26.79416 160.91792 38260 ft 432 kts 239°
2026-04-23 23:59 -26.83558 160.86929 38270 ft 432 kts 238°
2026-04-24 00:00 -26.87694 160.82066 38265 ft 431 kts 238°
2026-04-24 00:00 -26.91827 160.77201 38265 ft 431 kts 238°
2026-04-24 00:01 -26.95953 160.72338 38268 ft 431 kts 238°
2026-04-24 00:01 -27.00050 160.67504 38268 ft 431 kts 238°
2026-04-24 00:02 -27.04173 160.62635 38265 ft 430 kts 238°
2026-04-24 00:02 -27.08288 160.57771 38268 ft 429 kts 238°
2026-04-24 00:03 -27.12399 160.52905 38275 ft 429 kts 238°
2026-04-24 00:03 -27.16508 160.48033 38276 ft 430 kts 238°
2026-04-24 00:04 -27.20595 160.43184 38276 ft 430 kts 238°
2026-04-24 00:04 -27.24708 160.38299 38311 ft 430 kts 238°
2026-04-24 00:05 -27.28817 160.33414 38280 ft 430 kts 238°
2026-04-24 00:05 -27.32918 160.28532 38280 ft 429 kts 238°
2026-04-24 00:06 -27.36990 160.23679 38279 ft 429 kts 238°
2026-04-24 00:06 -27.41030 160.18819 38287 ft 419 kts 239°
2026-04-24 00:07 -27.45037 160.14006 38276 ft 424 kts 238°
2026-04-24 00:07 -27.49086 160.09191 38308 ft 429 kts 237°
2026-04-24 00:08 -27.53193 160.04295 38279 ft 430 kts 237°
2026-04-24 00:08 -27.57290 159.99400 38281 ft 428 kts 237°
2026-04-24 00:09 -27.61366 159.94511 38280 ft 428 kts 238°
2026-04-24 00:09 -27.65440 159.89614 38281 ft 428 kts 238°
2026-04-24 00:10 -27.69510 159.84715 38287 ft 428 kts 237°
2026-04-24 00:10 -27.73559 159.79836 38303 ft 429 kts 237°
2026-04-24 00:11 -27.77643 159.74912 38284 ft 430 kts 237°
2026-04-24 00:11 -27.81726 159.69985 38283 ft 430 kts 237°
2026-04-24 00:12 -27.85779 159.65087 38287 ft 429 kts 237°
2026-04-24 00:12 -27.89854 159.60157 38287 ft 429 kts 237°
2026-04-24 00:13 -27.93930 159.55217 38285 ft 429 kts 237°
2026-04-24 00:13 -27.98001 159.50279 38284 ft 430 kts 236°
2026-04-24 00:14 -28.02052 159.45357 38287 ft 431 kts 236°
2026-04-24 00:14 -28.06134 159.40395 38287 ft 431 kts 236°
2026-04-24 00:15 -28.10217 159.35426 38287 ft 431 kts 236°
2026-04-24 00:15 -28.14299 159.30453 38289 ft 431 kts 236°
2026-04-24 00:16 -28.18373 159.25481 38289 ft 430 kts 236°
2026-04-24 00:16 -28.22419 159.20535 38288 ft 431 kts 236°
2026-04-24 00:17 -28.26499 159.15545 38289 ft 432 kts 235°
2026-04-24 00:17 -28.30581 159.10547 38288 ft 432 kts 235°
2026-04-24 00:18 -28.34660 159.05547 38291 ft 432 kts 235°
2026-04-24 00:18 -28.38711 159.00574 38296 ft 432 kts 235°
2026-04-24 00:19 -28.42787 158.95565 38313 ft 432 kts 235°
2026-04-24 00:19 -28.46863 158.90547 38292 ft 432 kts 235°
2026-04-24 00:20 -28.50940 158.85524 38318 ft 432 kts 234°
2026-04-24 00:20 -28.54991 158.80525 38299 ft 433 kts 234°
2026-04-24 00:21 -28.59074 158.75483 38300 ft 433 kts 234°
2026-04-24 00:21 -28.63156 158.70436 38298 ft 433 kts 234°
2026-04-24 00:22 -28.67239 158.65382 38304 ft 433 kts 234°
2026-04-24 00:22 -28.71291 158.60358 38301 ft 434 kts 234°
2026-04-24 00:23 -28.75372 158.55292 38303 ft 434 kts 234°
2026-04-24 00:23 -28.79449 158.50225 38304 ft 434 kts 234°
2026-04-24 00:24 -28.83523 158.45157 38297 ft 434 kts 234°
2026-04-24 00:24 -28.87570 158.40115 38305 ft 434 kts 234°
2026-04-24 00:25 -28.91639 158.35039 38302 ft 434 kts 234°
2026-04-24 00:25 -28.95708 158.29957 38314 ft 433 kts 234°
2026-04-24 00:26 -28.99773 158.24873 38309 ft 433 kts 234°
2026-04-24 00:26 -29.03809 158.19819 38315 ft 433 kts 234°
2026-04-24 00:27 -29.07875 158.14721 38307 ft 434 kts 234°
2026-04-24 00:27 -29.11944 158.09613 38312 ft 435 kts 234°
2026-04-24 00:28 -29.16017 158.04493 38312 ft 435 kts 234°
2026-04-24 00:28 -29.20089 157.99370 38314 ft 435 kts 234°
2026-04-24 00:29 -29.24130 157.94278 38314 ft 435 kts 234°
2026-04-24 00:29 -29.28200 157.89144 38311 ft 435 kts 234°
2026-04-24 00:30 -29.32263 157.84010 38317 ft 435 kts 233°
2026-04-24 00:30 -29.36326 157.78869 38319 ft 436 kts 233°
2026-04-24 00:31 -29.40372 157.73745 38320 ft 436 kts 233°
2026-04-24 00:31 -29.44444 157.68582 38313 ft 436 kts 233°
2026-04-24 00:32 -29.48510 157.63420 38322 ft 436 kts 233°
2026-04-24 00:32 -29.52575 157.58252 38328 ft 436 kts 233°
2026-04-24 00:33 -29.56636 157.53081 38334 ft 436 kts 232°
2026-04-24 00:33 -29.60672 157.47935 38326 ft 437 kts 232°
2026-04-24 00:34 -29.64737 157.42747 38326 ft 437 kts 232°
2026-04-24 00:34 -29.68797 157.37558 38330 ft 437 kts 232°
2026-04-24 00:35 -29.72858 157.32361 38330 ft 437 kts 233°
2026-04-24 00:35 -29.76885 157.27202 38341 ft 436 kts 232°
2026-04-24 00:36 -29.80943 157.21993 38337 ft 437 kts 232°
2026-04-24 00:36 -29.84999 157.16783 38329 ft 437 kts 232°
2026-04-24 00:37 -29.89056 157.11564 38329 ft 437 kts 232°
2026-04-24 00:37 -29.93084 157.06375 38340 ft 437 kts 232°
2026-04-24 00:38 -29.97133 157.01153 38333 ft 437 kts 232°
2026-04-24 00:38 -30.00498 156.96806 38346 ft 437 kts 232°
2026-04-24 00:39 -30.05225 156.90694 38346 ft 437 kts 232°
2026-04-24 00:39 -30.09243 156.85490 38346 ft 437 kts 232°
2026-04-24 00:40 -30.13282 156.80253 38346 ft 437 kts 232°
2026-04-24 00:40 -30.17317 156.75013 38349 ft 436 kts 232°
2026-04-24 00:41 -30.21325 156.69803 38350 ft 436 kts 232°
2026-04-24 00:41 -30.25351 156.64561 38356 ft 436 kts 232°
2026-04-24 00:42 -30.29373 156.59319 38352 ft 435 kts 231°
2026-04-24 00:42 -30.33389 156.54074 38361 ft 435 kts 231°
2026-04-24 00:43 -30.37365 156.48878 38357 ft 434 kts 231°
2026-04-24 00:43 -30.41357 156.43653 38368 ft 433 kts 231°
2026-04-24 00:44 -30.45351 156.38415 38358 ft 433 kts 231°
2026-04-24 00:44 -30.48662 156.34070 38364 ft 433 kts 231°
2026-04-24 00:45 -30.53292 156.27987 38372 ft 433 kts 232°
2026-04-24 00:45 -30.57276 156.22748 38375 ft 433 kts 231°
2026-04-24 00:46 -30.61249 156.17515 38383 ft 432 kts 231°
2026-04-24 00:46 -30.64555 156.13154 38370 ft 432 kts 232°
2026-04-24 00:47 -30.69164 156.07057 38370 ft 432 kts 231°
2026-04-24 00:47 -30.73132 156.01809 38369 ft 432 kts 230°
2026-04-24 00:48 -30.76427 155.97449 38375 ft 432 kts 231°
2026-04-24 00:48 -30.80392 155.92189 38368 ft 432 kts 230°
2026-04-24 00:49 -30.84999 155.86067 38384 ft 433 kts 231°
2026-04-24 00:49 -30.88967 155.80787 38378 ft 434 kts 230°
2026-04-24 00:50 -30.92267 155.76392 38387 ft 433 kts 230°
2026-04-24 00:50 -30.96232 155.71105 38377 ft 433 kts 230°
2026-04-24 00:51 -31.00193 155.65818 38396 ft 433 kts 230°
2026-04-24 00:51 -31.04149 155.60525 38381 ft 433 kts 230°
2026-04-24 00:52 -31.08076 155.55265 38398 ft 433 kts 230°
2026-04-24 00:52 -31.12030 155.49962 38395 ft 433 kts 230°
2026-04-24 00:53 -31.15982 155.44656 38391 ft 433 kts 230°
2026-04-24 00:53 -31.19928 155.39351 38393 ft 433 kts 230°
2026-04-24 00:54 -31.23875 155.34037 38400 ft 434 kts 230°
2026-04-24 00:54 -31.27832 155.28701 38394 ft 435 kts 229°
2026-04-24 00:55 -31.31770 155.23382 38404 ft 435 kts 229°
2026-04-24 00:55 -31.35730 155.18029 38402 ft 435 kts 230°
2026-04-24 00:56 -31.39690 155.12668 38407 ft 435 kts 230°
2026-04-24 00:56 -31.43645 155.07304 38420 ft 436 kts 229°
2026-04-24 00:57 -31.47598 155.01937 38414 ft 439 kts 229°
2026-04-24 00:58 -31.53569 154.93816 38413 ft 437 kts 229°
2026-04-24 00:58 -31.57527 154.88420 38418 ft 436 kts 229°
2026-04-24 00:59 -31.61459 154.83054 38421 ft 437 kts 228°
2026-04-24 00:59 -31.65424 154.77636 38415 ft 438 kts 227°
2026-04-24 01:00 -31.69399 154.72197 38424 ft 439 kts 228°
2026-04-24 01:00 -31.73372 154.66751 38416 ft 439 kts 228°
2026-04-24 01:01 -31.77304 154.61352 38426 ft 436 kts 227°
2026-04-24 01:01 -31.81247 154.55931 38424 ft 436 kts 226°
2026-04-24 01:02 -31.85197 154.50495 38424 ft 438 kts 227°
2026-04-24 01:02 -31.89153 154.45044 38423 ft 438 kts 228°
2026-04-24 01:03 -31.93108 154.39582 38423 ft 438 kts 227°
2026-04-24 01:03 -31.97038 154.34152 38424 ft 438 kts 227°
2026-04-24 01:04 -32.00984 154.28692 38432 ft 438 kts 227°
2026-04-24 01:04 -32.04953 154.23189 38433 ft 443 kts 227°
2026-04-24 01:05 -32.08933 154.17661 38436 ft 441 kts 227°
2026-04-24 01:05 -32.12873 154.12182 38436 ft 442 kts 227°
2026-04-24 01:06 -32.16877 154.06609 38439 ft 448 kts 227°
2026-04-24 01:06 -32.20924 154.00969 38436 ft 452 kts 227°
2026-04-24 01:07 -32.24939 153.95355 38442 ft 442 kts 227°
2026-04-24 01:07 -32.28861 153.89863 38439 ft 440 kts 227°
2026-04-24 01:08 -32.32809 153.84335 38443 ft 440 kts 227°
2026-04-24 01:08 -32.36752 153.78804 38444 ft 440 kts 227°
2026-04-24 01:09 -32.40696 153.73264 38435 ft 440 kts 226°
2026-04-24 01:09 -32.44614 153.67751 38445 ft 440 kts 226°
2026-04-24 01:10 -32.48549 153.62204 38452 ft 440 kts 226°
2026-04-24 01:10 -32.52481 153.56655 38452 ft 440 kts 226°
2026-04-24 01:11 -32.56410 153.51102 38447 ft 440 kts 226°
2026-04-24 01:11 -32.60320 153.45567 38454 ft 441 kts 226°
2026-04-24 01:12 -32.64258 153.39985 38459 ft 441 kts 226°
2026-04-24 01:12 -32.68185 153.34408 38456 ft 440 kts 226°
2026-04-24 01:13 -32.72103 153.28835 38457 ft 440 kts 226°
2026-04-24 01:13 -32.76020 153.23258 38454 ft 440 kts 226°
2026-04-24 01:14 -32.79916 153.17703 38462 ft 441 kts 226°
2026-04-24 01:14 -32.83842 153.12095 38442 ft 441 kts 226°
2026-04-24 01:15 -32.87762 153.06486 38465 ft 440 kts 226°
2026-04-24 01:15 -32.91661 153.00899 38467 ft 439 kts 226°
2026-04-24 01:16 -32.95559 152.95306 38470 ft 439 kts 226°
2026-04-24 01:16 -32.99428 152.89746 38460 ft 439 kts 226°
2026-04-24 01:17 -33.03321 152.84143 38452 ft 439 kts 226°
2026-04-24 01:17 -33.07209 152.78538 38461 ft 438 kts 226°
2026-04-24 01:18 -33.11087 152.72939 38463 ft 437 kts 226°
2026-04-24 01:18 -33.14940 152.67368 38465 ft 438 kts 226°
2026-04-24 01:19 -33.18819 152.61751 38465 ft 439 kts 226°
2026-04-24 01:19 -33.22696 152.56127 38464 ft 439 kts 226°
2026-04-24 01:20 -33.26572 152.50498 38470 ft 438 kts 226°
2026-04-24 01:20 -33.30435 152.44877 38471 ft 437 kts 226°
2026-04-24 01:21 -33.34264 152.39297 38474 ft 437 kts 226°
2026-04-24 01:21 -33.38122 152.33668 38473 ft 437 kts 226°
2026-04-24 01:22 -33.41977 152.28034 38476 ft 437 kts 226°
2026-04-24 01:22 -33.45825 152.22401 38460 ft 437 kts 226°
2026-04-24 01:23 -33.49648 152.16795 38479 ft 437 kts 226°
2026-04-24 01:23 -33.53496 152.11146 38479 ft 438 kts 226°
2026-04-24 01:24 -33.57341 152.05491 38482 ft 438 kts 226°
2026-04-24 01:24 -33.61184 151.99830 38479 ft 437 kts 226°
2026-04-24 01:25 -33.65023 151.94167 38482 ft 437 kts 226°
2026-04-24 01:25 -33.68831 151.88540 38483 ft 436 kts 226°
2026-04-24 01:26 -33.72650 151.82887 38484 ft 435 kts 226°
2026-04-24 01:26 -33.76464 151.77235 38487 ft 435 kts 226°
2026-04-24 01:27 -33.80260 151.71561 38479 ft 436 kts 227°
2026-04-24 01:27 -33.83987 151.65869 38487 ft 436 kts 227°
2026-04-24 01:28 -33.87726 151.60129 38485 ft 435 kts 227°
2026-04-24 01:28 -33.91449 151.54411 38491 ft 434 kts 227°
2026-04-24 01:29 -33.95170 151.48697 38497 ft 433 kts 227°
2026-04-24 01:29 -33.98864 151.43018 38499 ft 433 kts 227°
2026-04-24 01:30 -34.02582 151.37294 38503 ft 433 kts 227°
2026-04-24 01:30 -34.06290 151.31575 38504 ft 433 kts 226°
2026-04-24 01:31 -34.09996 151.25850 38504 ft 432 kts 227°
2026-04-24 01:31 -34.13664 151.20173 38496 ft 432 kts 226°
2026-04-24 01:32 -34.17355 151.14452 38503 ft 432 kts 226°
2026-04-24 01:32 -34.21044 151.08726 38499 ft 432 kts 226°
2026-04-24 01:33 -34.24732 151.02994 38484 ft 432 kts 226°
2026-04-24 01:33 -34.28385 150.97303 38500 ft 431 kts 226°
2026-04-24 01:34 -34.32050 150.91587 38502 ft 430 kts 226°
2026-04-24 01:34 -34.35714 150.85862 38501 ft 430 kts 226°
2026-04-24 01:35 -34.39376 150.80133 38504 ft 430 kts 226°
2026-04-24 01:35 -34.43008 150.74441 38482 ft 430 kts 226°
2026-04-24 01:36 -34.46658 150.68711 38498 ft 429 kts 226°
2026-04-24 01:36 -34.50300 150.62985 38502 ft 429 kts 226°
2026-04-24 01:37 -34.53937 150.57258 38503 ft 429 kts 226°
2026-04-24 01:37 -34.57550 150.51560 38507 ft 429 kts 226°
2026-04-24 01:38 -34.61182 150.45821 38483 ft 429 kts 226°
2026-04-24 01:38 -34.64809 150.40081 38504 ft 428 kts 226°
2026-04-24 01:39 -34.68429 150.34342 38505 ft 428 kts 226°
2026-04-24 01:39 -34.72023 150.28637 38506 ft 428 kts 226°
2026-04-24 01:40 -34.75642 150.22891 38500 ft 428 kts 226°
2026-04-24 01:40 -34.79257 150.17135 38485 ft 428 kts 226°
2026-04-24 01:41 -34.82865 150.11373 38499 ft 427 kts 226°
2026-04-24 01:41 -34.86441 150.05653 38503 ft 427 kts 226°
2026-04-24 01:42 -34.90036 149.99902 38507 ft 427 kts 226°
2026-04-24 01:42 -34.93627 149.94145 38497 ft 427 kts 226°
2026-04-24 01:43 -34.97218 149.88379 38491 ft 427 kts 226°
2026-04-24 01:43 -35.00797 149.82623 38501 ft 426 kts 226°
2026-04-24 01:44 -35.04345 149.76908 38506 ft 425 kts 226°
2026-04-24 01:44 -35.07913 149.71151 38501 ft 425 kts 226°
2026-04-24 01:45 -35.11481 149.65384 38505 ft 425 kts 227°
2026-04-24 01:45 -35.15046 149.59613 38497 ft 425 kts 227°
2026-04-24 01:46 -35.18577 149.53887 38515 ft 424 kts 227°
2026-04-24 01:46 -35.22128 149.48120 38521 ft 424 kts 227°
2026-04-24 01:47 -35.25673 149.42353 38525 ft 424 kts 227°
2026-04-24 01:47 -35.29221 149.36572 38532 ft 425 kts 227°
2026-04-24 01:48 -35.32765 149.30787 38533 ft 425 kts 227°
2026-04-24 01:48 -35.36285 149.25033 38535 ft 425 kts 227°
2026-04-24 01:49 -35.39823 149.19238 38532 ft 425 kts 228°
2026-04-24 01:49 -35.43361 149.13437 38531 ft 425 kts 228°
2026-04-24 01:50 -35.46900 149.07621 38525 ft 425 kts 228°
2026-04-24 01:50 -35.50431 149.01808 38501 ft 425 kts 228°
2026-04-24 01:51 -35.53955 148.95999 38506 ft 424 kts 228°
2026-04-24 01:51 -35.57450 148.90224 38500 ft 424 kts 228°
2026-04-24 01:52 -35.60970 148.84404 38501 ft 424 kts 228°
2026-04-24 01:52 -35.64491 148.78571 38498 ft 425 kts 229°
2026-04-24 01:53 -35.68001 148.72743 38492 ft 424 kts 229°
2026-04-24 01:53 -35.71484 148.66954 38495 ft 424 kts 229°
2026-04-24 01:54 -35.74988 148.61120 38490 ft 424 kts 229°
2026-04-24 01:54 -35.78493 148.55274 38488 ft 424 kts 229°
2026-04-24 01:55 -35.81992 148.49429 38486 ft 424 kts 229°
2026-04-24 01:55 -35.85465 148.43615 38485 ft 424 kts 230°
2026-04-24 01:56 -35.88954 148.37765 38487 ft 424 kts 230°
2026-04-24 01:56 -35.92443 148.31904 38490 ft 423 kts 230°
2026-04-24 01:57 -35.95925 148.26048 38490 ft 424 kts 230°
2026-04-24 01:57 -35.99410 148.20180 38492 ft 424 kts 230°
2026-04-24 01:58 -36.02868 148.14343 38499 ft 424 kts 230°
2026-04-24 01:58 -36.06342 148.08469 38496 ft 424 kts 230°
2026-04-24 01:59 -36.09818 148.02582 38497 ft 424 kts 230°
2026-04-24 01:59 -36.13292 147.96686 38497 ft 424 kts 230°
2026-04-24 02:00 -36.16764 147.90786 38475 ft 424 kts 231°
2026-04-24 02:00 -36.20228 147.84890 38498 ft 423 kts 231°
2026-04-24 02:01 -36.23665 147.79028 38495 ft 423 kts 231°
2026-04-24 02:01 -36.27124 147.73119 38498 ft 424 kts 231°
2026-04-24 02:02 -36.30581 147.67203 38495 ft 424 kts 231°
2026-04-24 02:02 -36.34034 147.61283 38494 ft 424 kts 231°
2026-04-24 02:03 -36.39183 147.52438 38490 ft 423 kts 232°
2026-04-24 02:03 -36.42627 147.46509 38489 ft 423 kts 232°
2026-04-24 02:04 -36.46069 147.40573 38490 ft 423 kts 232°
2026-04-24 02:04 -36.49507 147.34634 38493 ft 423 kts 232°
2026-04-24 02:05 -36.52915 147.28736 38488 ft 423 kts 232°
2026-04-24 02:05 -36.56343 147.22793 38489 ft 423 kts 232°
2026-04-24 02:06 -36.59768 147.16844 38490 ft 423 kts 232°
2026-04-24 02:06 -36.63005 147.11215 38490 ft 423 kts 232°
2026-04-24 02:07 -36.66261 147.05540 38498 ft 423 kts 233°
2026-04-24 02:07 -36.69673 146.99584 38490 ft 422 kts 233°
2026-04-24 02:08 -36.73081 146.93627 38492 ft 422 kts 233°
2026-04-24 02:08 -36.76485 146.87663 38493 ft 422 kts 233°
2026-04-24 02:09 -36.79887 146.81692 38487 ft 422 kts 233°
2026-04-24 02:09 -36.83260 146.75762 38497 ft 422 kts 233°
2026-04-24 02:10 -36.86651 146.69791 38499 ft 422 kts 233°
2026-04-24 02:10 -36.90037 146.63818 38303 ft 418 kts 233°
2026-04-24 02:11 -36.91713 146.60856 37635 ft 420 kts 233°
2026-04-24 02:11 -36.93398 146.57882 36641 ft 430 kts 234°
2026-04-24 02:11 -36.95141 146.54800 35700 ft 439 kts 234°
2026-04-24 02:11 -36.96915 146.51659 34901 ft 445 kts 234°
2026-04-24 02:12 -36.98705 146.48485 34183 ft 448 kts 234°
2026-04-24 02:12 -37.00504 146.45292 33401 ft 450 kts 234°
2026-04-24 02:12 -37.02311 146.42082 32655 ft 452 kts 234°
2026-04-24 02:12 -37.04123 146.38859 31907 ft 454 kts 234°
2026-04-24 02:13 -37.05948 146.35612 31167 ft 457 kts 234°
2026-04-24 02:13 -37.07751 146.32399 30554 ft 456 kts 234°
2026-04-24 02:13 -37.09567 146.29160 29903 ft 454 kts 234°
2026-04-24 02:13 -37.11370 146.25940 29358 ft 449 kts 234°
2026-04-24 02:14 -37.13157 146.22748 28768 ft 446 kts 234°
2026-04-24 02:14 -37.14927 146.19582 28217 ft 442 kts 234°
2026-04-24 02:14 -37.16685 146.16436 27615 ft 440 kts 234°
2026-04-24 02:14 -37.18435 146.13301 27060 ft 437 kts 234°
2026-04-24 02:15 -37.20171 146.10190 26489 ft 434 kts 234°
2026-04-24 02:15 -37.21897 146.07093 25932 ft 432 kts 234°
2026-04-24 02:15 -37.23593 146.04047 25384 ft 430 kts 234°
2026-04-24 02:15 -37.25298 146.00981 24904 ft 426 kts 235°
2026-04-24 02:16 -37.26994 145.97928 24342 ft 425 kts 235°
2026-04-24 02:16 -37.28672 145.94906 23844 ft 421 kts 234°
2026-04-24 02:16 -37.30511 145.92059 23237 ft 418 kts 224°
2026-04-24 02:16 -37.32695 145.89672 22631 ft 415 kts 219°
2026-04-24 02:17 -37.34967 145.87451 22051 ft 412 kts 218°
2026-04-24 02:17 -37.37246 145.85292 21552 ft 408 kts 217°
2026-04-24 02:17 -37.39519 145.83159 20935 ft 407 kts 217°
2026-04-24 02:17 -37.41751 145.81074 20379 ft 404 kts 217°
2026-04-24 02:18 -37.44001 145.78974 19888 ft 400 kts 217°
2026-04-24 02:18 -37.46234 145.76889 19321 ft 399 kts 217°
2026-04-24 02:18 -37.48454 145.74816 18803 ft 396 kts 217°
2026-04-24 02:18 -37.50660 145.72754 18193 ft 393 kts 217°
2026-04-24 02:19 -37.52853 145.70704 17573 ft 391 kts 217°
2026-04-24 02:19 -37.55029 145.68668 17009 ft 389 kts 217°
2026-04-24 02:19 -37.57191 145.66645 16440 ft 386 kts 217°
2026-04-24 02:19 -37.59338 145.64634 15888 ft 383 kts 217°
2026-04-24 02:20 -37.61446 145.62661 15342 ft 381 kts 217°
2026-04-24 02:20 -37.63568 145.60672 14780 ft 379 kts 218°
2026-04-24 02:20 -37.65677 145.58692 14261 ft 376 kts 218°
2026-04-24 02:20 -37.67772 145.56724 13595 ft 376 kts 218°
2026-04-24 02:21 -37.69867 145.54753 12939 ft 375 kts 218°
2026-04-24 02:21 -37.71963 145.52783 12309 ft 375 kts 217°
2026-04-24 02:21 -37.74032 145.50841 12006 ft 365 kts 218°
2026-04-24 02:21 -37.75928 145.49052 11840 ft 353 kts 219°
2026-04-24 02:22 -37.77916 145.47180 11688 ft 340 kts 219°
2026-04-24 02:22 -37.79778 145.45423 11533 ft 328 kts 218°
2026-04-24 02:22 -37.81574 145.43729 11393 ft 316 kts 219°
2026-04-24 02:22 -37.83310 145.42090 11191 ft 308 kts 219°
2026-04-24 02:23 -37.85029 145.40466 10769 ft 308 kts 219°
2026-04-24 02:23 -37.86736 145.38850 10412 ft 306 kts 219°
2026-04-24 02:23 -37.88443 145.37235 9965 ft 306 kts 219°
2026-04-24 02:23 -37.90134 145.35634 9604 ft 301 kts 219°
2026-04-24 02:24 -37.91809 145.34049 9205 ft 299 kts 220°
2026-04-24 02:24 -37.93421 145.32522 9054 ft 288 kts 220°
2026-04-24 02:24 -37.94994 145.31033 8929 ft 277 kts 220°
2026-04-24 02:24 -37.96503 145.29603 8753 ft 264 kts 219°
2026-04-24 02:25 -37.97953 145.28228 8403 ft 258 kts 220°
2026-04-24 02:25 -37.99387 145.26865 7977 ft 257 kts 220°
2026-04-24 02:25 -38.00805 145.25513 7591 ft 254 kts 219°
2026-04-24 02:25 -38.02217 145.24169 7171 ft 254 kts 219°
2026-04-24 02:26 -38.03625 145.22832 6799 ft 251 kts 219°
2026-04-24 02:26 -38.05019 145.21510 6417 ft 250 kts 221°
2026-04-24 02:26 -38.06391 145.20203 6028 ft 250 kts 220°
2026-04-24 02:26 -38.07769 145.18888 5653 ft 248 kts 220°
2026-04-24 02:27 -38.09139 145.17565 5305 ft 245 kts 225°
2026-04-24 02:27 -38.10189 145.15951 4929 ft 231 kts 249°
2026-04-24 02:27 -38.10460 145.14011 4330 ft 221 kts 281°
2026-04-24 02:27 -38.09899 145.12254 3730 ft 215 kts 311°
2026-04-24 02:28 -38.08701 145.11090 2884 ft 225 kts 341°
2026-04-24 02:28 -38.07195 145.10736 2465 ft 216 kts 354°
2026-04-24 02:28 -38.05720 145.10607 1904 ft 214 kts 356°
2026-04-24 02:28 -38.04201 145.10499 1310 ft 219 kts 356°
2026-04-24 02:29 -38.02726 145.10391 975 ft 203 kts 356°
2026-04-24 02:29 -38.01427 145.10289 715 ft 177 kts 356°
2026-04-24 02:29 -38.00198 145.10186 454 ft 173 kts 357°
2026-04-24 02:29 -37.99028 145.10090 216 ft 159 kts 356°
2026-04-24 02:30 -37.97974 145.09999 56 ft 143 kts 357°
2026-04-24 02:30 -37.97193 145.09917 58 ft 66 kts 314°
2026-04-24 02:30 -37.97163 145.09821 61 ft 8 kts 115°
2026-04-24 02:30 -37.97177 145.09880 57 ft 10 kts 89°
2026-04-24 02:31 -37.97224 145.09930 58 ft 9 kts 165°
2026-04-24 02:31 -37.97302 145.09940 59 ft 14 kts 178°
2026-04-24 02:31 -37.97371 145.09943 54 ft 14 kts 178°
2026-04-24 02:31 -37.97464 145.09951 57 ft 12 kts 173°
2026-04-24 02:32 -37.97546 145.09964 57 ft 12 kts 172°
2026-04-24 02:32 -37.97645 145.09969 55 ft 16 kts 179°
2026-04-24 02:32 -37.97742 145.09948 54 ft 12 kts 221°
2026-04-24 02:32 -37.97765 145.09886 55 ft 6 kts 267°
2026-04-24 02:33 -37.97767 145.09822 57 ft 8 kts 267°
2026-04-24 02:33 -37.97770 145.09739 54 ft 10 kts 267°
2026-04-24 02:33 -37.97772 145.09659 55 ft 9 kts 278°
2026-04-24 02:33 -37.97725 145.09597 53 ft 9 kts 341°
2026-04-24 02:34 -37.97670 145.09574 52 ft 8 kts 342°
2026-04-24 02:34 -37.97626 145.09567 54 ft 5 kts 358°
2026-04-24 02:34 -37.97615 145.09550 53 ft 2 kts 303°
2026-04-24 02:34 -37.97614 145.09550 53 ft 0 kts 303°